owner,sensor,date,latitude,longitude,vertical_datum,wind_speed,wind_to_direction,wind_speed_of_gust,qcFlag 
TCOON,ioos:station:TCOON:068:1,2015-09-01T00:00:00Z,27.2970,-97.4049,0.0,3.9,146.0,4.8,'11111222,11111222,11111222' 
TCOON,ioos:station:TCOON:068:1,2015-09-01T00:06:00Z,27.2970,-97.4049,0.0,4.2,134.0,5.0,'11111222,11111222,11111222' 
TCOON,ioos:station:TCOON:068:1,2015-09-01T00:12:00Z,27.2970,-97.4049,0.0,4.6,136.0,5.3,'11111222,11111222,11111222' 
TCOON,ioos:station:TCOON:068:1,2015-09-01T00:18:00Z,27.2970,-97.4049,0.0,4.9,135.0,5.8,'1111122,1111122,1111122' 
TCOON,ioos:station:TCOON:068:1,2015-09-01T00:24:00Z,27.2970,-97.4049,0.0,4.9,135.0,5.8,'11111222,11111222,11111222' 
TCOON,ioos:station:TCOON:068:1,2015-09-01T00:30:00Z,27.2970,-97.4049,0.0,4.3,144.0,5.5,'11111222,11111222,11111222' 
TCOON,ioos:station:TCOON:068:1,2015-09-01T00:36:00Z,27.2970,-97.4049,0.0,4.7,149.0,5.7,'11111222,11111222,11111222' 
TCOON,ioos:station:TCOON:068:1,2015-09-01T00:42:00Z,27.2970,-97.4049,0.0,5.4,149.0,6.3,'11111222,11111222,11111222' 
TCOON,ioos:station:TCOON:068:1,2015-09-01T00:48:00Z,27.2970,-97.4049,0.0,6.0,146.0,7.0,'11111222,11111222,11111222' 
TCOON,ioos:station:TCOON:068:1,2015-09-01T00:54:00Z,27.2970,-97.4049,0.0,6.5,157.0,7.6,'11111222,11111222,11111222' 
TCOON,ioos:station:TCOON:068:1,2015-09-01T01:00:00Z,27.2970,-97.4049,0.0,6.7,154.0,8.0,'11111222,11111222,11111222' 
TCOON,ioos:station:TCOON:068:1,2015-09-01T01:06:00Z,27.2970,-97.4049,0.0,6.6,147.0,8.3,'11111222,11111222,11111222' 
TCOON,ioos:station:TCOON:068:1,2015-09-01T01:12:00Z,27.2970,-97.4049,0.0,6.4,143.0,8.4,'11111222,11111222,11111222' 
TCOON,ioos:station:TCOON:068:1,2015-09-01T01:18:00Z,27.2970,-97.4049,0.0,7.2,144.0,9.1,'1111122,1111122,1111122' 
TCOON,ioos:station:TCOON:068:1,2015-09-01T01:24:00Z,27.2970,-97.4049,0.0,7.2,144.0,9.1,'11111222,11111222,11111222' 
TCOON,ioos:station:TCOON:068:1,2015-09-01T01:30:00Z,27.2970,-97.4049,0.0,7.0,144.0,8.9,'11111222,11111222,11111222' 
TCOON,ioos:station:TCOON:068:1,2015-09-01T01:36:00Z,27.2970,-97.4049,0.0,6.4,140.0,8.4,'11111222,11111222,11111222' 
TCOON,ioos:station:TCOON:068:1,2015-09-01T01:42:00Z,27.2970,-97.4049,0.0,6.4,139.0,8.7,'11111222,11111222,11111222' 
TCOON,ioos:station:TCOON:068:1,2015-09-01T01:48:00Z,27.2970,-97.4049,0.0,6.5,139.0,9.2,'11111222,11111222,11111222' 
TCOON,ioos:station:TCOON:068:1,2015-09-01T01:54:00Z,27.2970,-97.4049,0.0,7.4,141.0,8.6,'11111222,11111222,11111222' 
TCOON,ioos:station:TCOON:068:1,2015-09-01T02:00:00Z,27.2970,-97.4049,0.0,8.3,139.0,9.6,'11111222,11111222,11111222' 
TCOON,ioos:station:TCOON:068:1,2015-09-01T02:06:00Z,27.2970,-97.4049,0.0,7.8,135.0,9.2,'11111222,11111222,11111222' 
TCOON,ioos:station:TCOON:068:1,2015-09-01T02:12:00Z,27.2970,-97.4049,0.0,5.7,133.0,8.9,'1111122,1111122,1111122' 
TCOON,ioos:station:TCOON:068:1,2015-09-01T02:18:00Z,27.2970,-97.4049,0.0,5.7,133.0,8.9,'11111222,11111222,11111222' 
TCOON,ioos:station:TCOON:068:1,2015-09-01T02:24:00Z,27.2970,-97.4049,0.0,6.1,128.0,7.5,'11111222,11111222,11111222' 
TCOON,ioos:station:TCOON:068:1,2015-09-01T02:30:00Z,27.2970,-97.4049,0.0,6.2,126.0,7.9,'11111222,11111222,11111222' 
TCOON,ioos:station:TCOON:068:1,2015-09-01T02:36:00Z,27.2970,-97.4049,0.0,6.3,121.0,7.5,'11111222,11111222,11111222' 
TCOON,ioos:station:TCOON:068:1,2015-09-01T02:42:00Z,27.2970,-97.4049,0.0,5.9,131.0,7.4,'11111222,11111222,11111222' 
TCOON,ioos:station:TCOON:068:1,2015-09-01T02:48:00Z,27.2970,-97.4049,0.0,5.0,133.0,6.8,'11111222,11111222,11111222' 
TCOON,ioos:station:TCOON:068:1,2015-09-01T02:54:00Z,27.2970,-97.4049,0.0,5.4,137.0,6.7,'11111222,11111222,11111222' 
TCOON,ioos:station:TCOON:068:1,2015-09-01T03:00:00Z,27.2970,-97.4049,0.0,5.5,141.0,6.9,'11111222,11111222,11111222' 
TCOON,ioos:station:TCOON:068:1,2015-09-01T03:06:00Z,27.2970,-97.4049,0.0,5.6,145.0,7.0,'11111222,11111222,11111222' 
TCOON,ioos:station:TCOON:068:1,2015-09-01T03:12:00Z,27.2970,-97.4049,0.0,5.5,138.0,7.0,'11111222,11111222,11111222' 
TCOON,ioos:station:TCOON:068:1,2015-09-01T03:18:00Z,27.2970,-97.4049,0.0,4.8,137.0,6.1,'11111222,11111222,11111222' 
TCOON,ioos:station:TCOON:068:1,2015-09-01T03:24:00Z,27.2970,-97.4049,0.0,4.7,136.0,5.4,'11111222,11111222,11111222' 
TCOON,ioos:station:TCOON:068:1,2015-09-01T03:30:00Z,27.2970,-97.4049,0.0,3.7,131.0,5.4,'11111222,11111222,11111222' 
TCOON,ioos:station:TCOON:068:1,2015-09-01T03:36:00Z,27.2970,-97.4049,0.0,3.8,131.0,5.8,'11111222,11111222,11111222' 
TCOON,ioos:station:TCOON:068:1,2015-09-01T03:42:00Z,27.2970,-97.4049,0.0,4.3,136.0,5.2,'11111222,11111222,11111222' 
TCOON,ioos:station:TCOON:068:1,2015-09-01T03:48:00Z,27.2970,-97.4049,0.0,4.5,137.0,5.3,'11111222,11111222,11111222' 
TCOON,ioos:station:TCOON:068:1,2015-09-01T03:54:00Z,27.2970,-97.4049,0.0,4.8,143.0,5.3,'11111222,11111222,11111222' 
TCOON,ioos:station:TCOON:068:1,2015-09-01T04:00:00Z,27.2970,-97.4049,0.0,4.8,140.0,6.1,'11111222,11111222,11111222' 
TCOON,ioos:station:TCOON:068:1,2015-09-01T04:06:00Z,27.2970,-97.4049,0.0,5.2,140.0,6.0,'11111222,11111222,11111222' 
TCOON,ioos:station:TCOON:068:1,2015-09-01T04:12:00Z,27.2970,-97.4049,0.0,4.5,143.0,6.3,'11111222,11111222,11111222' 
TCOON,ioos:station:TCOON:068:1,2015-09-01T04:18:00Z,27.2970,-97.4049,0.0,4.9,141.0,6.2,'11111222,11111222,11111222' 
TCOON,ioos:station:TCOON:068:1,2015-09-01T04:24:00Z,27.2970,-97.4049,0.0,5.1,141.0,6.1,'11111222,11111222,11111222' 
TCOON,ioos:station:TCOON:068:1,2015-09-01T04:30:00Z,27.2970,-97.4049,0.0,4.9,139.0,6.6,'1111122,1111122,1111122' 
TCOON,ioos:station:TCOON:068:1,2015-09-01T04:36:00Z,27.2970,-97.4049,0.0,4.9,139.0,6.6,'11111222,11111222,11111222' 
TCOON,ioos:station:TCOON:068:1,2015-09-01T04:42:00Z,27.2970,-97.4049,0.0,5.3,134.0,6.5,'11111222,11111222,11111222' 
TCOON,ioos:station:TCOON:068:1,2015-09-01T04:48:00Z,27.2970,-97.4049,0.0,4.5,133.0,6.5,'11111222,11111222,11111222' 
TCOON,ioos:station:TCOON:068:1,2015-09-01T04:54:00Z,27.2970,-97.4049,0.0,4.4,128.0,6.1,'11111222,11111222,11111222' 
TCOON,ioos:station:TCOON:068:1,2015-09-01T05:00:00Z,27.2970,-97.4049,0.0,5.0,131.0,6.5,'11111222,11111222,11111222' 
TCOON,ioos:station:TCOON:068:1,2015-09-01T05:06:00Z,27.2970,-97.4049,0.0,5.6,141.0,6.5,'11111222,11111222,11111222' 
TCOON,ioos:station:TCOON:068:1,2015-09-01T05:12:00Z,27.2970,-97.4049,0.0,6.0,139.0,7.2,'11111222,11111222,11111222' 
TCOON,ioos:station:TCOON:068:1,2015-09-01T05:18:00Z,27.2970,-97.4049,0.0,5.2,141.0,6.7,'1111122,1111122,1111122' 
TCOON,ioos:station:TCOON:068:1,2015-09-01T05:24:00Z,27.2970,-97.4049,0.0,5.2,141.0,6.7,'11111222,11111222,11111222' 
TCOON,ioos:station:TCOON:068:1,2015-09-01T05:30:00Z,27.2970,-97.4049,0.0,4.8,143.0,6.2,'11111222,11111222,11111222' 
TCOON,ioos:station:TCOON:068:1,2015-09-01T05:36:00Z,27.2970,-97.4049,0.0,4.3,146.0,6.4,'11111222,11111222,11111222' 
TCOON,ioos:station:TCOON:068:1,2015-09-01T05:42:00Z,27.2970,-97.4049,0.0,5.4,143.0,6.4,'11111222,11111222,11111222' 
TCOON,ioos:station:TCOON:068:1,2015-09-01T05:48:00Z,27.2970,-97.4049,0.0,5.1,146.0,6.4,'11111222,11111222,11111222' 
TCOON,ioos:station:TCOON:068:1,2015-09-01T05:54:00Z,27.2970,-97.4049,0.0,5.5,151.0,6.8,'11111222,11111222,11111222' 
TCOON,ioos:station:TCOON:068:1,2015-09-01T06:00:00Z,27.2970,-97.4049,0.0,5.3,143.0,6.9,'11111222,11111222,11111222' 
TCOON,ioos:station:TCOON:068:1,2015-09-01T06:06:00Z,27.2970,-97.4049,0.0,6.0,146.0,7.8,'11111222,11111222,11111222' 
TCOON,ioos:station:TCOON:068:1,2015-09-01T06:12:00Z,27.2970,-97.4049,0.0,5.8,145.0,7.8,'11111222,11111222,11111222' 
TCOON,ioos:station:TCOON:068:1,2015-09-01T06:18:00Z,27.2970,-97.4049,0.0,5.3,137.0,6.7,'11111222,11111222,11111222' 
TCOON,ioos:station:TCOON:068:1,2015-09-01T06:24:00Z,27.2970,-97.4049,0.0,4.4,138.0,7.3,'11111222,11111222,11111222' 
TCOON,ioos:station:TCOON:068:1,2015-09-01T06:30:00Z,27.2970,-97.4049,0.0,4.6,138.0,5.8,'1111122,1111122,1111122' 
TCOON,ioos:station:TCOON:068:1,2015-09-01T06:36:00Z,27.2970,-97.4049,0.0,4.6,138.0,5.8,'11111222,11111222,11111222' 
TCOON,ioos:station:TCOON:068:1,2015-09-01T06:42:00Z,27.2970,-97.4049,0.0,4.1,133.0,6.0,'11111222,11111222,11111222' 
TCOON,ioos:station:TCOON:068:1,2015-09-01T06:48:00Z,27.2970,-97.4049,0.0,4.1,129.0,5.4,'11111222,11111222,11111222' 
TCOON,ioos:station:TCOON:068:1,2015-09-01T06:54:00Z,27.2970,-97.4049,0.0,3.9,123.0,5.7,'11111222,11111222,11111222' 
TCOON,ioos:station:TCOON:068:1,2015-09-01T07:00:00Z,27.2970,-97.4049,0.0,4.4,123.0,5.2,'11111222,11111222,11111222' 
TCOON,ioos:station:TCOON:068:1,2015-09-01T07:06:00Z,27.2970,-97.4049,0.0,4.4,118.0,5.8,'11111222,11111222,11111222' 
TCOON,ioos:station:TCOON:068:1,2015-09-01T07:12:00Z,27.2970,-97.4049,0.0,9.3,100.0,11.8,'11111222,11111222,11111222' 
TCOON,ioos:station:TCOON:068:1,2015-09-01T07:18:00Z,27.2970,-97.4049,0.0,5.5,87.0,11.0,'11111222,11111222,11111222' 
TCOON,ioos:station:TCOON:068:1,2015-09-01T07:24:00Z,27.2970,-97.4049,0.0,8.9,133.0,13.3,'11111222,11111222,11111222' 
TCOON,ioos:station:TCOON:068:1,2015-09-01T07:30:00Z,27.2970,-97.4049,0.0,8.2,158.0,12.5,'11111222,11111222,11111222' 
TCOON,ioos:station:TCOON:068:1,2015-09-01T07:36:00Z,27.2970,-97.4049,0.0,7.9,150.0,12.8,'11111222,11111222,11111222' 
TCOON,ioos:station:TCOON:068:1,2015-09-01T07:42:00Z,27.2970,-97.4049,0.0,8.0,139.0,9.7,'11111222,11111222,11111222' 
TCOON,ioos:station:TCOON:068:1,2015-09-01T07:48:00Z,27.2970,-97.4049,0.0,8.4,141.0,11.1,'11111222,11111222,11111222' 
TCOON,ioos:station:TCOON:068:1,2015-09-01T07:54:00Z,27.2970,-97.4049,0.0,7.8,136.0,10.1,'11111222,11111222,11111222' 
TCOON,ioos:station:TCOON:068:1,2015-09-01T08:00:00Z,27.2970,-97.4049,0.0,7.9,158.0,9.1,'1111122,1111122,1111122' 
TCOON,ioos:station:TCOON:068:1,2015-09-01T08:06:00Z,27.2970,-97.4049,0.0,7.9,158.0,9.1,'11111222,11111222,11111222' 
TCOON,ioos:station:TCOON:068:1,2015-09-01T08:12:00Z,27.2970,-97.4049,0.0,9.4,171.0,11.6,'11111222,11111222,11111222' 
TCOON,ioos:station:TCOON:068:1,2015-09-01T08:18:00Z,27.2970,-97.4049,0.0,8.0,180.0,11.9,'11111222,11111222,11111222' 
TCOON,ioos:station:TCOON:068:1,2015-09-01T08:24:00Z,27.2970,-97.4049,0.0,9.0,198.0,10.1,'11111222,11111222,11111222' 
TCOON,ioos:station:TCOON:068:1,2015-09-01T08:30:00Z,27.2970,-97.4049,0.0,6.6,213.0,9.8,'11111222,11111222,11111222' 
TCOON,ioos:station:TCOON:068:1,2015-09-01T08:36:00Z,27.2970,-97.4049,0.0,5.6,213.0,7.1,'11111222,11111222,11111222' 
TCOON,ioos:station:TCOON:068:1,2015-09-01T08:42:00Z,27.2970,-97.4049,0.0,5.2,222.0,6.2,'11111222,11111222,11111222' 
TCOON,ioos:station:TCOON:068:1,2015-09-01T08:48:00Z,27.2970,-97.4049,0.0,5.2,219.0,6.5,'11111222,11111222,11111222' 
TCOON,ioos:station:TCOON:068:1,2015-09-01T08:54:00Z,27.2970,-97.4049,0.0,2.9,199.0,6.0,'11111222,11111222,11111222' 
TCOON,ioos:station:TCOON:068:1,2015-09-01T09:00:00Z,27.2970,-97.4049,0.0,2.0,179.0,2.9,'11111222,11111222,11111222' 
TCOON,ioos:station:TCOON:068:1,2015-09-01T09:06:00Z,27.2970,-97.4049,0.0,1.5,156.0,2.4,'11111222,11111222,11111222' 
TCOON,ioos:station:TCOON:068:1,2015-09-01T09:12:00Z,27.2970,-97.4049,0.0,2.7,132.0,3.1,'11111222,11111222,11111222' 
TCOON,ioos:station:TCOON:068:1,2015-09-01T09:18:00Z,27.2970,-97.4049,0.0,2.8,116.0,4.1,'11111222,11111222,11111222' 
TCOON,ioos:station:TCOON:068:1,2015-09-01T09:24:00Z,27.2970,-97.4049,0.0,0.8,126.0,2.0,'1111122,1111122,1111122' 
TCOON,ioos:station:TCOON:068:1,2015-09-01T09:30:00Z,27.2970,-97.4049,0.0,0.8,126.0,2.0,'11111222,11111222,11111222' 
TCOON,ioos:station:TCOON:068:1,2015-09-01T09:36:00Z,27.2970,-97.4049,0.0,99.0,-9999.0,99.0,'11144222,99999999,11144222' 
TCOON,ioos:station:TCOON:068:1,2015-09-01T09:42:00Z,27.2970,-97.4049,0.0,99.0,-9999.0,99.0,'11144222,99999999,11144222' 
TCOON,ioos:station:TCOON:068:1,2015-09-01T09:48:00Z,27.2970,-97.4049,0.0,99.0,-9999.0,99.0,'11144222,99999999,11144222' 
TCOON,ioos:station:TCOON:068:1,2015-09-01T09:54:00Z,27.2970,-97.4049,0.0,1.6,150.0,1.8,'11111222,11111222,11111222' 
TCOON,ioos:station:TCOON:068:1,2015-09-01T10:00:00Z,27.2970,-97.4049,0.0,2.7,155.0,3.3,'11111222,11111222,11111222' 
TCOON,ioos:station:TCOON:068:1,2015-09-01T10:06:00Z,27.2970,-97.4049,0.0,3.6,168.0,4.0,'11111222,11111222,11111222' 
TCOON,ioos:station:TCOON:068:1,2015-09-01T10:12:00Z,27.2970,-97.4049,0.0,3.5,175.0,4.6,'11111222,11111222,11111222' 
TCOON,ioos:station:TCOON:068:1,2015-09-01T10:18:00Z,27.2970,-97.4049,0.0,4.2,156.0,5.0,'11111222,11111222,11111222' 
TCOON,ioos:station:TCOON:068:1,2015-09-01T10:24:00Z,27.2970,-97.4049,0.0,5.7,120.0,7.4,'11111222,11111222,11111222' 
TCOON,ioos:station:TCOON:068:1,2015-09-01T10:30:00Z,27.2970,-97.4049,0.0,6.9,123.0,8.2,'11111222,11111222,11111222' 
TCOON,ioos:station:TCOON:068:1,2015-09-01T10:36:00Z,27.2970,-97.4049,0.0,6.4,136.0,7.8,'1111122,1111122,1111122' 
TCOON,ioos:station:TCOON:068:1,2015-09-01T10:42:00Z,27.2970,-97.4049,0.0,6.4,136.0,7.8,'11111222,11111222,11111222' 
TCOON,ioos:station:TCOON:068:1,2015-09-01T10:48:00Z,27.2970,-97.4049,0.0,7.6,139.0,9.6,'11111222,11111222,11111222' 
TCOON,ioos:station:TCOON:068:1,2015-09-01T10:54:00Z,27.2970,-97.4049,0.0,7.1,140.0,9.8,'11111222,11111222,11111222' 
TCOON,ioos:station:TCOON:068:1,2015-09-01T11:00:00Z,27.2970,-97.4049,0.0,7.4,137.0,9.0,'11111222,11111222,11111222' 
TCOON,ioos:station:TCOON:068:1,2015-09-01T11:06:00Z,27.2970,-97.4049,0.0,7.0,136.0,8.8,'11111222,11111222,11111222' 
TCOON,ioos:station:TCOON:068:1,2015-09-01T11:12:00Z,27.2970,-97.4049,0.0,6.7,132.0,8.6,'11111222,11111222,11111222' 
TCOON,ioos:station:TCOON:068:1,2015-09-01T11:18:00Z,27.2970,-97.4049,0.0,7.7,129.0,9.0,'11111222,11111222,11111222' 
TCOON,ioos:station:TCOON:068:1,2015-09-01T11:24:00Z,27.2970,-97.4049,0.0,8.6,134.0,10.3,'11111222,11111222,11111222' 
TCOON,ioos:station:TCOON:068:1,2015-09-01T11:30:00Z,27.2970,-97.4049,0.0,8.7,136.0,10.3,'1111122,1111122,1111122' 
TCOON,ioos:station:TCOON:068:1,2015-09-01T11:36:00Z,27.2970,-97.4049,0.0,8.7,136.0,10.3,'11111222,11111222,11111222' 
TCOON,ioos:station:TCOON:068:1,2015-09-01T11:42:00Z,27.2970,-97.4049,0.0,8.2,136.0,10.7,'11111222,11111222,11111222' 
TCOON,ioos:station:TCOON:068:1,2015-09-01T11:48:00Z,27.2970,-97.4049,0.0,9.5,141.0,10.9,'11111222,11111222,11111222' 
TCOON,ioos:station:TCOON:068:1,2015-09-01T11:54:00Z,27.2970,-97.4049,0.0,8.2,134.0,10.5,'11111222,11111222,11111222' 
TCOON,ioos:station:TCOON:068:1,2015-09-01T12:00:00Z,27.2970,-97.4049,0.0,8.8,133.0,10.9,'11111222,11111222,11111222' 
TCOON,ioos:station:TCOON:068:1,2015-09-01T12:06:00Z,27.2970,-97.4049,0.0,8.3,135.0,10.4,'11111222,11111222,11111222' 
TCOON,ioos:station:TCOON:068:1,2015-09-01T12:12:00Z,27.2970,-97.4049,0.0,8.3,136.0,11.6,'11111222,11111222,11111222' 
TCOON,ioos:station:TCOON:068:1,2015-09-01T12:18:00Z,27.2970,-97.4049,0.0,7.3,129.0,9.2,'1111122,1111122,1111122' 
TCOON,ioos:station:TCOON:068:1,2015-09-01T12:24:00Z,27.2970,-97.4049,0.0,7.3,129.0,9.2,'11111222,11111222,11111222' 
TCOON,ioos:station:TCOON:068:1,2015-09-01T12:30:00Z,27.2970,-97.4049,0.0,7.9,123.0,9.1,'11111222,11111222,11111222' 
TCOON,ioos:station:TCOON:068:1,2015-09-01T12:36:00Z,27.2970,-97.4049,0.0,6.1,120.0,9.1,'11111222,11111222,11111222' 
TCOON,ioos:station:TCOON:068:1,2015-09-01T12:42:00Z,27.2970,-97.4049,0.0,7.3,120.0,8.6,'11111222,11111222,11111222' 
TCOON,ioos:station:TCOON:068:1,2015-09-01T12:48:00Z,27.2970,-97.4049,0.0,6.4,124.0,8.5,'11111222,11111222,11111222' 
TCOON,ioos:station:TCOON:068:1,2015-09-01T12:54:00Z,27.2970,-97.4049,0.0,7.0,126.0,8.4,'11111222,11111222,11111222' 
TCOON,ioos:station:TCOON:068:1,2015-09-01T13:00:00Z,27.2970,-97.4049,0.0,6.4,130.0,8.5,'11111222,11111222,11111222' 
TCOON,ioos:station:TCOON:068:1,2015-09-01T13:06:00Z,27.2970,-97.4049,0.0,6.6,126.0,8.3,'11111222,11111222,11111222' 
TCOON,ioos:station:TCOON:068:1,2015-09-01T13:12:00Z,27.2970,-97.4049,0.0,5.2,129.0,7.2,'11111222,11111222,11111222' 
TCOON,ioos:station:TCOON:068:1,2015-09-01T13:18:00Z,27.2970,-97.4049,0.0,4.5,122.0,6.4,'1111122,1111122,1111122' 
TCOON,ioos:station:TCOON:068:1,2015-09-01T13:24:00Z,27.2970,-97.4049,0.0,4.5,122.0,6.4,'11111222,11111222,11111222' 
TCOON,ioos:station:TCOON:068:1,2015-09-01T13:30:00Z,27.2970,-97.4049,0.0,4.6,112.0,6.2,'11111222,11111222,11111222' 
TCOON,ioos:station:TCOON:068:1,2015-09-01T13:36:00Z,27.2970,-97.4049,0.0,4.9,110.0,5.9,'11111222,11111222,11111222' 
TCOON,ioos:station:TCOON:068:1,2015-09-01T13:42:00Z,27.2970,-97.4049,0.0,5.2,109.0,6.1,'11111222,11111222,11111222' 
TCOON,ioos:station:TCOON:068:1,2015-09-01T13:48:00Z,27.2970,-97.4049,0.0,5.3,106.0,6.4,'11111222,11111222,11111222' 
TCOON,ioos:station:TCOON:068:1,2015-09-01T13:54:00Z,27.2970,-97.4049,0.0,5.6,100.0,6.7,'11111222,11111222,11111222' 
TCOON,ioos:station:TCOON:068:1,2015-09-01T14:00:00Z,27.2970,-97.4049,0.0,5.8,95.0,6.8,'11111222,11111222,11111222' 
TCOON,ioos:station:TCOON:068:1,2015-09-01T14:06:00Z,27.2970,-97.4049,0.0,5.7,106.0,6.6,'11111222,11111222,11111222' 
TCOON,ioos:station:TCOON:068:1,2015-09-01T14:12:00Z,27.2970,-97.4049,0.0,6.0,102.0,6.4,'11111222,11111222,11111222' 
TCOON,ioos:station:TCOON:068:1,2015-09-01T14:18:00Z,27.2970,-97.4049,0.0,5.7,96.0,6.7,'11111222,11111222,11111222' 
TCOON,ioos:station:TCOON:068:1,2015-09-01T14:24:00Z,27.2970,-97.4049,0.0,5.7,96.0,6.7,'1111122,1111122,1111122' 
TCOON,ioos:station:TCOON:068:1,2015-09-01T14:30:00Z,27.2970,-97.4049,0.0,5.8,99.0,7.1,'11111222,11111222,11111222' 
TCOON,ioos:station:TCOON:068:1,2015-09-01T14:36:00Z,27.2970,-97.4049,0.0,6.9,93.0,8.0,'11111222,11111222,11111222' 
TCOON,ioos:station:TCOON:068:1,2015-09-01T14:42:00Z,27.2970,-97.4049,0.0,6.8,94.0,8.1,'11111222,11111222,11111222' 
TCOON,ioos:station:TCOON:068:1,2015-09-01T14:48:00Z,27.2970,-97.4049,0.0,7.6,101.0,8.5,'11111222,11111222,11111222' 
TCOON,ioos:station:TCOON:068:1,2015-09-01T14:54:00Z,27.2970,-97.4049,0.0,7.4,103.0,9.2,'11111222,11111222,11111222' 
TCOON,ioos:station:TCOON:068:1,2015-09-01T15:00:00Z,27.2970,-97.4049,0.0,6.7,102.0,9.0,'11111222,11111222,11111222' 
TCOON,ioos:station:TCOON:068:1,2015-09-01T15:06:00Z,27.2970,-97.4049,0.0,8.1,105.0,8.8,'11111222,11111222,11111222' 
TCOON,ioos:station:TCOON:068:1,2015-09-01T15:12:00Z,27.2970,-97.4049,0.0,7.4,114.0,9.4,'11111222,11111222,11111222' 
TCOON,ioos:station:TCOON:068:1,2015-09-01T15:18:00Z,27.2970,-97.4049,0.0,7.4,114.0,9.4,'1111122,1111122,1111122' 
TCOON,ioos:station:TCOON:068:1,2015-09-01T15:24:00Z,27.2970,-97.4049,0.0,6.9,115.0,8.1,'11111222,11111222,11111222' 
TCOON,ioos:station:TCOON:068:1,2015-09-01T15:30:00Z,27.2970,-97.4049,0.0,7.0,111.0,8.5,'11111222,11111222,11111222' 
TCOON,ioos:station:TCOON:068:1,2015-09-01T15:36:00Z,27.2970,-97.4049,0.0,6.7,107.0,7.8,'11111222,11111222,11111222' 
TCOON,ioos:station:TCOON:068:1,2015-09-01T15:42:00Z,27.2970,-97.4049,0.0,5.7,106.0,7.6,'11111222,11111222,11111222' 
TCOON,ioos:station:TCOON:068:1,2015-09-01T15:48:00Z,27.2970,-97.4049,0.0,6.1,108.0,8.4,'11111222,11111222,11111222' 
TCOON,ioos:station:TCOON:068:1,2015-09-01T15:54:00Z,27.2970,-97.4049,0.0,6.5,115.0,7.8,'11111222,11111222,11111222' 
TCOON,ioos:station:TCOON:068:1,2015-09-01T16:00:00Z,27.2970,-97.4049,0.0,6.9,115.0,9.2,'11111222,11111222,11111222' 
TCOON,ioos:station:TCOON:068:1,2015-09-01T16:06:00Z,27.2970,-97.4049,0.0,7.3,109.0,8.7,'11111222,11111222,11111222' 
TCOON,ioos:station:TCOON:068:1,2015-09-01T16:12:00Z,27.2970,-97.4049,0.0,6.5,114.0,8.6,'11111222,11111222,11111222' 
TCOON,ioos:station:TCOON:068:1,2015-09-01T16:18:00Z,27.2970,-97.4049,0.0,7.0,108.0,8.6,'11111222,11111222,11111222' 
TCOON,ioos:station:TCOON:068:1,2015-09-01T16:24:00Z,27.2970,-97.4049,0.0,7.0,108.0,8.6,'1111122,1111122,1111122' 
TCOON,ioos:station:TCOON:068:1,2015-09-01T16:30:00Z,27.2970,-97.4049,0.0,6.6,118.0,8.2,'11111222,11111222,11111222' 
TCOON,ioos:station:TCOON:068:1,2015-09-01T16:36:00Z,27.2970,-97.4049,0.0,5.9,112.0,7.1,'11111222,11111222,11111222' 
TCOON,ioos:station:TCOON:068:1,2015-09-01T16:42:00Z,27.2970,-97.4049,0.0,5.6,116.0,7.3,'11111222,11111222,11111222' 
TCOON,ioos:station:TCOON:068:1,2015-09-01T16:48:00Z,27.2970,-97.4049,0.0,5.8,123.0,7.7,'11111222,11111222,11111222' 
TCOON,ioos:station:TCOON:068:1,2015-09-01T16:54:00Z,27.2970,-97.4049,0.0,5.6,119.0,8.4,'11111222,11111222,11111222' 
TCOON,ioos:station:TCOON:068:1,2015-09-01T17:00:00Z,27.2970,-97.4049,0.0,5.3,119.0,7.3,'11111222,11111222,11111222' 
TCOON,ioos:station:TCOON:068:1,2015-09-01T17:06:00Z,27.2970,-97.4049,0.0,5.8,123.0,7.1,'11111222,11111222,11111222' 
TCOON,ioos:station:TCOON:068:1,2015-09-01T17:12:00Z,27.2970,-97.4049,0.0,5.4,127.0,7.2,'11111222,11111222,11111222' 
TCOON,ioos:station:TCOON:068:1,2015-09-01T17:18:00Z,27.2970,-97.4049,0.0,5.1,137.0,6.5,'11111222,11111222,11111222' 
TCOON,ioos:station:TCOON:068:1,2015-09-01T17:24:00Z,27.2970,-97.4049,0.0,5.1,137.0,6.5,'1111122,1111122,1111122' 
TCOON,ioos:station:TCOON:068:1,2015-09-01T17:30:00Z,27.2970,-97.4049,0.0,5.3,136.0,6.2,'11111222,11111222,11111222' 
TCOON,ioos:station:TCOON:068:1,2015-09-01T17:36:00Z,27.2970,-97.4049,0.0,4.4,145.0,6.4,'11111222,11111222,11111222' 
TCOON,ioos:station:TCOON:068:1,2015-09-01T17:42:00Z,27.2970,-97.4049,0.0,4.6,142.0,5.9,'11111222,11111222,11111222' 
TCOON,ioos:station:TCOON:068:1,2015-09-01T17:48:00Z,27.2970,-97.4049,0.0,4.7,137.0,5.7,'11111222,11111222,11111222' 
TCOON,ioos:station:TCOON:068:1,2015-09-01T17:54:00Z,27.2970,-97.4049,0.0,5.0,127.0,7.1,'11111222,11111222,11111222' 
TCOON,ioos:station:TCOON:068:1,2015-09-01T18:00:00Z,27.2970,-97.4049,0.0,5.2,136.0,6.2,'11111222,11111222,11111222' 
TCOON,ioos:station:TCOON:068:1,2015-09-01T18:06:00Z,27.2970,-97.4049,0.0,4.8,131.0,5.6,'11111222,11111222,11111222' 
TCOON,ioos:station:TCOON:068:1,2015-09-01T18:12:00Z,27.2970,-97.4049,0.0,4.8,127.0,6.8,'11111222,11111222,11111222' 
TCOON,ioos:station:TCOON:068:1,2015-09-01T18:18:00Z,27.2970,-97.4049,0.0,4.8,127.0,6.8,'1111122,1111122,1111122' 
TCOON,ioos:station:TCOON:068:1,2015-09-01T18:24:00Z,27.2970,-97.4049,0.0,5.4,127.0,6.8,'11111222,11111222,11111222' 
TCOON,ioos:station:TCOON:068:1,2015-09-01T18:30:00Z,27.2970,-97.4049,0.0,4.3,133.0,6.8,'11111222,11111222,11111222' 
TCOON,ioos:station:TCOON:068:1,2015-09-01T18:36:00Z,27.2970,-97.4049,0.0,4.7,137.0,5.7,'11111222,11111222,11111222' 
TCOON,ioos:station:TCOON:068:1,2015-09-01T18:42:00Z,27.2970,-97.4049,0.0,4.9,133.0,6.3,'11111222,11111222,11111222' 
TCOON,ioos:station:TCOON:068:1,2015-09-01T18:48:00Z,27.2970,-97.4049,0.0,4.1,130.0,5.8,'11111222,11111222,11111222' 
TCOON,ioos:station:TCOON:068:1,2015-09-01T18:54:00Z,27.2970,-97.4049,0.0,5.0,136.0,5.8,'11111222,11111222,11111222' 
TCOON,ioos:station:TCOON:068:1,2015-09-01T19:00:00Z,27.2970,-97.4049,0.0,4.2,130.0,6.3,'11111222,11111222,11111222' 
TCOON,ioos:station:TCOON:068:1,2015-09-01T19:06:00Z,27.2970,-97.4049,0.0,4.5,135.0,6.0,'11111222,11111222,11111222' 
TCOON,ioos:station:TCOON:068:1,2015-09-01T19:12:00Z,27.2970,-97.4049,0.0,4.4,135.0,6.0,'11111222,11111222,11111222' 
TCOON,ioos:station:TCOON:068:1,2015-09-01T19:18:00Z,27.2970,-97.4049,0.0,4.4,135.0,6.0,'1111122,1111122,1111122' 
TCOON,ioos:station:TCOON:068:1,2015-09-01T19:24:00Z,27.2970,-97.4049,0.0,5.7,144.0,7.0,'11111222,11111222,11111222' 
TCOON,ioos:station:TCOON:068:1,2015-09-01T19:30:00Z,27.2970,-97.4049,0.0,5.4,149.0,7.0,'11111222,11111222,11111222' 
TCOON,ioos:station:TCOON:068:1,2015-09-01T19:36:00Z,27.2970,-97.4049,0.0,4.1,148.0,6.2,'11111222,11111222,11111222' 
TCOON,ioos:station:TCOON:068:1,2015-09-01T19:42:00Z,27.2970,-97.4049,0.0,4.8,150.0,6.4,'11111222,11111222,11111222' 
TCOON,ioos:station:TCOON:068:1,2015-09-01T19:48:00Z,27.2970,-97.4049,0.0,4.6,136.0,6.2,'11111222,11111222,11111222' 
TCOON,ioos:station:TCOON:068:1,2015-09-01T19:54:00Z,27.2970,-97.4049,0.0,5.0,138.0,6.5,'11111222,11111222,11111222' 
TCOON,ioos:station:TCOON:068:1,2015-09-01T20:00:00Z,27.2970,-97.4049,0.0,4.4,134.0,5.7,'11111222,11111222,11111222' 
TCOON,ioos:station:TCOON:068:1,2015-09-01T20:06:00Z,27.2970,-97.4049,0.0,4.9,134.0,6.1,'11111222,11111222,11111222' 
TCOON,ioos:station:TCOON:068:1,2015-09-01T20:12:00Z,27.2970,-97.4049,0.0,4.9,134.0,6.1,'1111122,1111122,1111122' 
TCOON,ioos:station:TCOON:068:1,2015-09-01T20:18:00Z,27.2970,-97.4049,0.0,5.6,133.0,6.7,'11111222,11111222,11111222' 